This is the latest recevied weather packets stored in our database for station/object KE8DAF-15. If no packets are shown the sender has not sent any weather packets the latest 10 day(s).
| Time | Temp. | Humidity | Pressure | Rain* | Wind** | Luminosity | Snow |
|---|---|---|---|---|---|---|---|
| 1787519892 | 13.89° C | 84% | 997.6 hPa | 0 mm | - | - | - |
| 1787519592 | 15° C | 81% | 997.5 hPa | 0 mm | - | - | - |
| 1787519292 | 15° C | 77% | 997.4 hPa | 0 mm | - | - | - |
| 1787518992 | 15° C | 77% | 997.4 hPa | 0 mm | - | - | - |
| 1787518692 | 15° C | 76% | 997.4 hPa | 0 mm | - | - | - |
| 1787518392 | 15.56° C | 75% | 997.4 hPa | 0 mm | - | - | - |
| 1787518092 | 15.56° C | 75% | 997.4 hPa | 0 mm | - | - | - |
| 1787517792 | 16.11° C | 74% | 997.3 hPa | 0 mm | - | - | - |
| 1787517492 | 16.11° C | 74% | 997.2 hPa | 0 mm | - | - | - |
| 1787517192 | 16.11° C | 73% | 997.1 hPa | 0 mm | - | - | - |
| 1787516892 | 16.11° C | 72% | 997.1 hPa | 0 mm | - | - | - |
| 1787516592 | 16.11° C | 71% | 997.1 hPa | 0 mm | - | - | - |
| 1787516292 | 16.67° C | 71% | 997 hPa | 0 mm | - | - | - |
| 1787515992 | 16.67° C | 70% | 997 hPa | 0 mm | - | - | - |
| 1787515692 | 16.67° C | 70% | 997 hPa | 0 mm | - | - | - |
| 1787515392 | 16.67° C | 70% | 997 hPa | 0 mm | - | - | - |
| 1787515092 | 16.67° C | 68% | 997 hPa | 0 mm | - | - | - |
| 1787514792 | 17.22° C | 68% | 997 hPa | 0 mm | - | - | - |
| 1787514492 | 17.22° C | 67% | 997 hPa | 0 mm | - | - | - |
| 1787514192 | 17.22° C | 67% | 997 hPa | 0 mm | - | - | - |
| 1787513892 | 17.22° C | 66% | 997 hPa | 0 mm | - | - | - |
| 1787513592 | 17.78° C | 68% | 996.9 hPa | 0 mm | - | - | - |
| 1787513292 | 17.22° C | 69% | 997.1 hPa | 0 mm | - | - | - |
| 1787512992 | 16.67° C | 68% | 997.1 hPa | 0 mm | - | - | - |
| 1787512692 | 16.67° C | 70% | 997.1 hPa | 0 mm | - | - | - |
* Rain latest hour (hover to see other rain measurements)
** Current wind speed in m/s (hover to see current wind gust speed)